Starlink 30969

operational
NORAD ID: 58438 Int'l Des: 2023-183 Owner: SPXS Country: US Constellation: starlink
LEOCIRCULAR

About Starlink 30969

Description loading...

Live Position

Loading 3D Globe...

Upcoming Passes

Altitude History

Altitude vs Time

uPlot chart will show altitude changes over time

Two-Line Element Set

1 58438U 23183B 25303.73290274 .00004198 00000-0 32556-3 0 9998
2 58438 43.0064 29.6203 0001894 260.0644 99.9985 15.02546251107168
Epoch: Oct 30, 2025 • Age: 22 hours

Current Status

Altitude 559.4 km
Velocity 7.59 km/s
Sub-Earth Point 22.21°N, 129.01°E
Launch Date Nov 28, 2023
Age 1.9 years
Type internet

Technical Details

Classification Payload
Mass 730.00 kg
Dry Mass 700.00 kg
Total Mass 730.00 kg
Length 0.30 m
Diameter 4.10 m
Span 29.00 m
Shape Box + pan
Manufacturer SPXS
Bus Type Starlink V2M
Phase Status In Orbit
Owner/State SPXS/US

Large Constellations

Loading constellations...